| time (UTC) | temp C | wind direction | speed KPH | gust KPH | rain 1hr cm | rain 24hr cm | rain mn cm | humidity % | barometer mb |
| 20260509214803 | 29 | 347 | 9.7 | 22.5 | 0.00 | 0.48 | 0.00 | 30 | 1008.5 |
| 20260509214303 | 29 | 359 | 9.7 | 29.0 | 0.00 | 0.48 | 0.00 | 29 | 1008.5 |
| 20260509213303 | 30 | 307 | 4.8 | 14.5 | 0.00 | 0.48 | 0.00 | 29 | 1007.3 |
| 20260509212802 | 30 | 213 | 8.0 | 8.0 | 0.00 | 0.48 | 0.00 | 30 | 1007.7 |
| 20260509212305 | 30 | 311 | 6.4 | 20.9 | 0.00 | 0.48 | 0.00 | 32 | 1007.7 |
| 20260509211303 | 29 | 80 | 6.4 | 22.5 | 0.00 | 0.48 | 0.00 | 31 | 1007.7 |
| 20260509210304 | 29 | 325 | 9.7 | 22.5 | 0.00 | 0.48 | 0.00 | 31 | 1007.7 |
| 20260509205803 | 29 | 145 | 8.0 | 29.0 | 0.00 | 0.48 | 0.00 | 31 | 1007.7 |
| 20260509205306 | 29 | 163 | 8.0 | 29.0 | 0.00 | 0.48 | 0.00 | 32 | 1007.7 |
| 20260509204803 | 28 | 10 | 8.0 | 14.5 | 0.00 | 0.48 | 0.00 | 32 | 1008.1 |
| 20260509204303 | 28 | 331 | 8.0 | 16.1 | 0.00 | 0.48 | 0.00 | 32 | 1008.1 |
| 20260509203803 | 28 | 145 | 9.7 | 16.1 | 0.00 | 0.48 | 0.00 | 32 | 1008.1 |
| 20260509202803 | 28 | 325 | 9.7 | 19.3 | 0.00 | 0.48 | 0.00 | 32 | 1007.9 |
| 20260509201303 | 28 | 2 | 9.7 | 16.1 | 0.00 | 0.48 | 0.00 | 33 | 1007.9 |
| 20260509200303 | 28 | 42 | 9.7 | 20.9 | 0.00 | 0.48 | 0.00 | 35 | 1007.9 |
| 20260509195803 | 28 | 167 | 11.3 | 20.9 | 0.00 | 0.48 | 0.00 | 36 | 1007.9 |
| 20260509195306 | 28 | 163 | 12.9 | 24.1 | 0.00 | 0.48 | 0.00 | 37 | 1007.9 |
| 20260509194803 | 28 | 145 | 11.3 | 24.1 | 0.00 | 0.48 | 0.00 | 36 | 1008.3 |
| 20260509194303 | 28 | 159 | 9.7 | 14.5 | 0.00 | 0.48 | 0.00 | 36 | 1008.3 |
| 20260509193803 | 28 | 280 | 11.3 | 25.7 | 0.00 | 0.48 | 0.00 | 36 | 1008.3 |
| 20260509192803 | 27 | 347 | 8.0 | 19.3 | 0.00 | 0.48 | 0.00 | 37 | 1008.4 |
| 20260509191803 | 28 | 100 | 9.7 | 22.5 | 0.00 | 0.48 | 0.00 | 37 | 1008.4 |
| 20260509191303 | 27 | 338 | 9.7 | 27.4 | 0.00 | 0.48 | 0.00 | 40 | 1008.4 |
| 20260509190803 | 27 | 145 | 8.0 | 22.5 | 0.00 | 0.48 | 0.00 | 40 | 1008.5 |
| 20260509190304 | 27 | 292 | 8.0 | 12.9 | 0.00 | 0.48 | 0.00 | 40 | 1008.5 |
| 20260509185804 | 27 | 303 | 8.0 | 12.9 | 0.00 | 0.48 | 0.00 | 40 | 1008.5 |
| 20260509185306 | 27 | 115 | 9.7 | 12.9 | 0.00 | 0.48 | 0.00 | 41 | 1008.5 |
| 20260509183803 | 26 | 145 | 11.3 | 25.7 | 0.00 | 0.48 | 0.00 | 42 | 1008.6 |
| 20260509183303 | 26 | 325 | 14.5 | 14.5 | 0.00 | 0.48 | 0.00 | 43 | 1008.6 |
| 20260509182803 | 26 | 280 | 12.9 | 29.0 | 0.00 | 0.48 | 0.00 | 43 | 1008.6 |
| 20260509182306 | 26 | 145 | 9.7 | 35.4 | 0.00 | 0.48 | 0.00 | 42 | 1008.6 |
| 20260509181303 | 26 | 138 | 12.9 | 33.8 | 0.00 | 0.48 | 0.00 | 45 | 1008.6 |
| 20260509180303 | 25 | 325 | 11.3 | 27.4 | 0.00 | 0.48 | 0.00 | 48 | 1008.7 |
| 20260509175803 | 25 | 100 | 12.9 | 27.4 | 0.00 | 0.48 | 0.00 | 48 | 1008.7 |
| 20260509175306 | 24 | 139 | 11.3 | 22.5 | 0.00 | 0.48 | 0.00 | 52 | 1008.7 |
| 20260509174304 | 23 | 335 | 11.3 | 29.0 | 0.00 | 0.48 | 0.00 | 52 | 1008.9 |
| 20260509173804 | 23 | 347 | 11.3 | 29.0 | 0.00 | 0.48 | 0.00 | 52 | 1008.9 |
| 20260509172803 | 23 | 167 | 9.7 | 20.9 | 0.00 | 0.48 | 0.00 | 55 | 1009.0 |
| 20260509172306 | 22 | 140 | 9.7 | 27.4 | 0.00 | 0.48 | 0.00 | 55 | 1009.0 |
| 20260509171803 | 22 | 303 | 12.9 | 27.4 | 0.00 | 0.48 | 0.00 | 55 | 1009.0 |
| 20260509171304 | 22 | 145 | 12.9 | 32.2 | 0.00 | 0.48 | 0.00 | 58 | 1009.0 |
| 20260509170804 | 22 | 145 | 11.3 | 32.2 | 0.00 | 0.48 | 0.00 | 58 | 1009.5 |
| 20260509165803 | 22 | 167 | 11.3 | 19.3 | 0.00 | 0.48 | 0.00 | 60 | 1009.5 |
| 20260509165306 | 21 | 127 | 9.7 | 24.1 | 0.00 | 0.48 | 0.00 | 59 | 1009.5 |
| 20260509164304 | 21 | 149 | 8.0 | 19.3 | 0.00 | 0.48 | 0.00 | 63 | 1009.4 |
| 20260509163803 | 21 | 347 | 8.0 | 19.3 | 0.00 | 0.48 | 0.00 | 64 | 1009.4 |
| 20260509162803 | 20 | 332 | 9.7 | 14.5 | 0.00 | 0.48 | 0.00 | 65 | 1009.5 |
| 20260509162307 | 20 | 138 | 9.7 | 22.5 | 0.00 | 0.48 | 0.00 | 66 | 1009.5 |
| 20260509161804 | 20 | 123 | 8.0 | 12.9 | 0.00 | 0.48 | 0.00 | 67 | 1010.0 |
| 20260509161303 | 20 | 157 | 8.0 | 14.5 | 0.00 | 0.48 | 0.00 | 68 | 1010.0 |
| 20260509160804 | 20 | 123 | 8.0 | 11.3 | 0.00 | 0.48 | 0.00 | 68 | 1009.9 |
| 20260509160303 | 20 | 121 | 4.8 | 16.1 | 0.00 | 0.48 | 0.00 | 70 | 1009.9 |
| 20260509155804 | 19 | 325 | 4.8 | 16.1 | 0.00 | 0.48 | 0.00 | 73 | 1009.9 |
| 20260509155306 | 19 | 190 | 8.0 | 16.1 | 0.00 | 0.48 | 0.00 | 75 | 1009.9 |
| 20260509154803 | 18 | 10 | 8.0 | 22.5 | 0.00 | 0.48 | 0.00 | 74 | 1010.0 |
| 20260509154303 | 18 | 155 | 8.0 | 22.5 | 0.00 | 0.48 | 0.00 | 76 | 1010.0 |
| 20260509153803 | 18 | 145 | 8.0 | 14.5 | 0.00 | 0.48 | 0.00 | 77 | 1010.0 |
| 20260509153303 | 18 | 145 | 8.0 | 11.3 | 0.00 | 0.48 | 0.00 | 77 | 1010.0 |
| 20260509152803 | 18 | 145 | 4.8 | 16.1 | 0.00 | 0.48 | 0.00 | 79 | 1010.1 |
| 20260509152306 | 17 | 197 | 8.0 | 16.1 | 0.00 | 0.48 | 0.00 | 79 | 1010.1 |
| 20260509151804 | 17 | 167 | 9.7 | 19.3 | 0.00 | 0.48 | 0.00 | 80 | 1010.1 |
| 20260509151303 | 17 | 145 | 9.7 | 19.3 | 0.00 | 0.48 | 0.00 | 81 | 1010.1 |
| 20260509150804 | 17 | 145 | 9.7 | 12.9 | 0.00 | 0.48 | 0.00 | 82 | 1010.0 |
| 20260509150304 | 17 | 145 | 4.8 | 12.9 | 0.00 | 0.48 | 0.00 | 83 | 1010.0 |
| 20260509145803 | 17 | 145 | 4.8 | 12.9 | 0.00 | 0.48 | 0.00 | 84 | 1010.0 |
| 20260509145306 | 17 | 181 | 4.8 | 14.5 | 0.00 | 0.48 | 0.00 | 84 | 1010.0 |
| 20260509144803 | 17 | 145 | 4.8 | 8.0 | 0.00 | 0.48 | 0.00 | 84 | 1009.9 |
| 20260509144303 | 16 | 234 | 8.0 | 8.0 | 0.00 | 0.48 | 0.00 | 84 | 1009.9 |
| 20260509143803 | 16 | 303 | 8.0 | 9.7 | 0.00 | 0.48 | 0.00 | 85 | 1009.9 |
| 20260509143304 | 16 | 145 | 8.0 | 9.7 | 0.00 | 0.48 | 0.00 | 86 | 1009.9 |
| 20260509142804 | 16 | 145 | 8.0 | 12.9 | 0.00 | 0.48 | 0.00 | 86 | 1009.7 |
| 20260509141803 | 16 | 123 | 8.0 | 12.9 | 0.00 | 0.48 | 0.00 | 88 | 1009.7 |
| 20260509141303 | 16 | 145 | 4.8 | 9.7 | 0.00 | 0.48 | 0.00 | 88 | 1009.7 |
| 20260509140804 | 16 | 145 | 3.2 | 11.3 | 0.00 | 0.48 | 0.00 | 88 | 1009.6 |
| 20260509140303 | 15 | 219 | 3.2 | 9.7 | 0.00 | 0.48 | 0.00 | 88 | 1009.6 |
| 20260509135804 | 15 | 145 | 3.2 | 8.0 | 0.00 | 0.48 | 0.00 | 89 | 1009.6 |
| 20260509135306 | 15 | 229 | 3.2 | 11.3 | 0.00 | 0.48 | 0.00 | 89 | 1009.6 |
| 20260509134803 | 15 | 123 | 3.2 | 4.8 | 0.00 | 0.48 | 0.00 | 89 | 1009.5 |
| 20260509133804 | 15 | 123 | 4.8 | 12.9 | 0.00 | 0.48 | 0.00 | 89 | 1009.5 |
| 20260509133304 | 15 | 173 | 4.8 | 12.9 | 0.00 | 0.48 | 0.00 | 90 | 1009.5 |
| 20260509132306 | 15 | 177 | 4.8 | 12.9 | 0.00 | 0.48 | 0.00 | 90 | 1009.8 |
| 20260509131804 | 15 | 100 | 8.0 | 4.8 | 0.00 | 0.48 | 0.00 | 91 | 1009.8 |
| 20260509130803 | 15 | 167 | 4.8 | 9.7 | 0.00 | 0.48 | 0.00 | 91 | 1009.9 |
| 20260509130304 | 14 | 93 | 3.2 | 16.1 | 0.00 | 0.48 | 0.00 | 91 | 1009.9 |
| 20260509125803 | 14 | 77 | 3.2 | 12.9 | 0.00 | 0.48 | 0.00 | 92 | 1009.9 |
| 20260509125307 | 15 | 167 | 4.8 | 12.9 | 0.00 | 0.48 | 0.00 | 92 | 1009.9 |
| 20260509124804 | 14 | 145 | 3.2 | 14.5 | 0.00 | 0.48 | 0.00 | 93 | 1009.8 |
| 20260509124303 | 14 | 145 | 1.6 | 4.8 | 0.00 | 0.48 | 0.00 | 93 | 1009.8 |
| 20260509122804 | 14 | 145 | 3.2 | 12.9 | 0.00 | 0.48 | 0.00 | 94 | 1009.4 |
| 20260509122306 | 14 | 166 | 3.2 | 12.9 | 0.00 | 0.48 | 0.00 | 94 | 1009.4 |
| 20260509121803 | 14 | 235 | 3.2 | 12.9 | 0.00 | 0.48 | 0.00 | 94 | 1009.4 |
| 20260509121304 | 14 | 121 | 4.8 | 9.7 | 0.00 | 0.48 | 0.00 | 95 | 1009.4 |
| 20260509120803 | 14 | 145 | 4.8 | 11.3 | 0.00 | 0.48 | 0.00 | 95 | 1009.7 |
| 20260509115804 | 14 | 145 | 3.2 | 8.0 | 0.00 | 0.48 | 0.00 | 95 | 1009.7 |
| 20260509115306 | 13 | 208 | 3.2 | 9.7 | 0.00 | 0.48 | 0.00 | 95 | 1009.7 |
| 20260509114803 | 13 | 10 | 1.6 | 8.0 | 0.00 | 0.48 | 0.00 | 95 | 1009.3 |
| 20260509113803 | 13 | 190 | 0.0 | 0.0 | 0.00 | 0.48 | 0.00 | 95 | 1009.3 |
| 20260509113304 | 13 | 133 | 1.6 | 3.2 | 0.00 | 0.48 | 0.00 | 96 | 1009.3 |
| 20260509112804 | 13 | 167 | 0.0 | 3.2 | 0.00 | 0.48 | 0.00 | 96 | 1009.4 |
| 20260509112306 | 13 | 145 | 1.6 | 3.2 | 0.00 | 0.48 | 0.00 | 96 | 1009.4 |
| 20260509111804 | 13 | 347 | 1.6 | 3.2 | 0.00 | 0.48 | 0.00 | 96 | 1009.4 |
| 20260509111303 | 13 | 123 | 3.2 | 8.0 | 0.00 | 0.48 | 0.00 | 96 | 1009.4 |
| 20260509110804 | 13 | 145 | 3.2 | 9.7 | 0.00 | 0.48 | 0.00 | 96 | 1009.7 |
| 20260509105804 | 13 | 145 | 4.8 | 12.9 | 0.00 | 0.48 | 0.00 | 97 | 1009.7 |
| 20260509105306 | 13 | 145 | 6.4 | 12.9 | 0.00 | 0.48 | 0.00 | 96 | 1009.7 |
| 20260509104304 | 13 | 126 | 3.2 | 14.5 | 0.00 | 0.48 | 0.00 | 96 | 1009.1 |
| 20260509103804 | 13 | 190 | 3.2 | 11.3 | 0.00 | 0.48 | 0.00 | 96 | 1009.1 |
| 20260509103304 | 13 | 145 | 3.2 | 9.7 | 0.00 | 0.48 | 0.00 | 96 | 1009.1 |
| 20260509102803 | 13 | 167 | 1.6 | 4.8 | 0.00 | 0.48 | 0.00 | 96 | 1009.0 |
| 20260509102306 | 13 | 117 | 3.2 | 4.8 | 0.00 | 0.48 | 0.00 | 96 | 1009.0 |
| 20260509101804 | 13 | 257 | 3.2 | 12.9 | 0.00 | 0.48 | 0.00 | 96 | 1009.0 |
| 20260509101304 | 13 | 145 | 3.2 | 12.9 | 0.00 | 0.48 | 0.00 | 96 | 1009.0 |
| 20260509100804 | 13 | 190 | 1.6 | 8.0 | 0.00 | 0.48 | 0.00 | 96 | 1009.0 |
| 20260509095803 | 13 | 145 | 1.6 | 8.0 | 0.00 | 0.48 | 0.00 | 96 | 1009.0 |
| 20260509095306 | 13 | 133 | 1.6 | 9.7 | 0.00 | 0.48 | 0.00 | 96 | 1009.0 |
| 20260509094803 | 13 | 145 | 1.6 | 9.7 | 0.00 | 0.48 | 0.00 | 96 | 1008.8 |
| 20260509094303 | 13 | 158 | 3.2 | 8.0 | 0.00 | 0.48 | 0.00 | 96 | 1008.8 |
| 20260509093803 | 13 | 145 | 1.6 | 9.7 | 0.00 | 0.48 | 0.00 | 96 | 1008.8 |
| 20260509093303 | 13 | 145 | 1.6 | 8.0 | 0.00 | 0.48 | 0.00 | 96 | 1008.8 |
| 20260509092804 | 13 | 145 | 3.2 | 0.0 | 0.00 | 0.48 | 0.00 | 96 | 1008.5 |
| 20260509092305 | 13 | 172 | 3.2 | 11.3 | 0.00 | 0.48 | 0.00 | 96 | 1008.5 |
| 20260509091804 | 13 | 190 | 1.6 | 4.8 | 0.00 | 0.48 | 0.00 | 96 | 1008.5 |
| 20260509091304 | 13 | 123 | 0.0 | 3.2 | 0.00 | 0.48 | 0.00 | 96 | 1008.5 |
| 20260509090803 | 13 | 145 | 1.6 | 3.2 | 0.00 | 0.48 | 0.00 | 96 | 1008.7 |
| 20260509090304 | 13 | 145 | 1.6 | 4.8 | 0.00 | 0.48 | 0.00 | 96 | 1008.7 |
| 20260509085804 | 13 | 145 | 0.0 | 0.0 | 0.00 | 0.48 | 0.00 | 96 | 1008.7 |
| 20260509085306 | 13 | 125 | 1.6 | 0.0 | 0.00 | 0.48 | 0.00 | 96 | 1008.7 |
| 20260509084804 | 13 | 145 | 1.6 | 0.0 | 0.00 | 0.48 | 0.00 | 96 | 1008.6 |
| 20260509084304 | 13 | 157 | 1.6 | 4.8 | 0.00 | 0.48 | 0.00 | 96 | 1008.6 |
| 20260509083803 | 13 | 123 | 1.6 | 3.2 | 0.00 | 0.48 | 0.00 | 96 | 1008.6 |
| 20260509082804 | 13 | 145 | 1.6 | 0.0 | 0.00 | 0.48 | 0.00 | 96 | 1008.7 |
| 20260509081803 | 13 | 145 | 3.2 | 0.0 | 0.00 | 0.48 | 0.00 | 96 | 1008.7 |
| 20260509081304 | 13 | 145 | 4.8 | 8.0 | 0.00 | 0.48 | 0.00 | 96 | 1008.7 |
| 20260509080804 | 13 | 145 | 4.8 | 8.0 | 0.00 | 0.48 | 0.00 | 96 | 1008.5 |
| 20260509080303 | 13 | 145 | 3.2 | 8.0 | 0.00 | 0.48 | 0.00 | 96 | 1008.5 |
| 20260509075306 | 13 | 138 | 1.6 | 9.7 | 0.00 | 0.48 | 0.00 | 96 | 1008.5 |
| 20260509074804 | 13 | 145 | 1.6 | 9.7 | 0.00 | 0.48 | 0.00 | 96 | 1008.5 |
| 20260509074303 | 13 | 167 | 1.6 | 4.8 | 0.00 | 0.48 | 0.00 | 96 | 1008.5 |
| 20260509073804 | 13 | 145 | 1.6 | 8.0 | 0.00 | 0.48 | 0.00 | 96 | 1008.5 |
| 20260509073304 | 13 | 145 | 0.0 | 8.0 | 0.00 | 0.48 | 0.00 | 96 | 1008.5 |
| 20260509072804 | 13 | 145 | 0.0 | 0.0 | 0.00 | 0.48 | 0.00 | 96 | 1008.7 |
| 20260509072306 | 13 | 145 | 0.0 | 0.0 | 0.00 | 0.48 | 0.00 | 95 | 1008.7 |
| 20260509071804 | 13 | 280 | 0.0 | 0.0 | 0.00 | 0.48 | 0.00 | 95 | 1008.7 |
| 20260509071304 | 13 | 145 | 0.0 | 0.0 | 0.00 | 0.48 | 0.00 | 95 | 1008.7 |
| 20260509070803 | 13 | 145 | 0.0 | 0.0 | 0.00 | 0.48 | 0.00 | 95 | 1008.7 |
| 20260509070304 | 13 | 135 | 0.0 | 0.0 | 0.00 | 0.48 | 0.00 | 95 | 1008.7 |
| 20260509065804 | 13 | 123 | 0.0 | 0.0 | 0.00 | 0.48 | 0.00 | 94 | 1008.7 |
| 20260509065306 | 13 | 123 | 0.0 | 0.0 | 0.00 | 0.48 | 0.00 | 94 | 1008.7 |
| 20260509064804 | 13 | 123 | 0.0 | 0.0 | 0.00 | 0.48 | 0.00 | 94 | 1008.5 |
| 20260509064304 | 13 | 123 | 0.0 | 0.0 | 0.00 | 0.48 | 0.00 | 94 | 1008.5 |
| 20260509063804 | 13 | 123 | 0.0 | 0.0 | 0.00 | 0.48 | 0.00 | 94 | 1008.5 |
| 20260509063304 | 13 | 123 | 0.0 | 0.0 | 0.00 | 0.48 | 0.00 | 94 | 1008.5 |
| 20260509062804 | 14 | 123 | 0.0 | 0.0 | 0.00 | 0.48 | 0.00 | 94 | 1008.3 |
| 20260509062306 | 14 | 123 | 0.0 | 0.0 | 0.00 | 0.48 | 0.00 | 94 | 1008.3 |
| 20260509061804 | 14 | 190 | 0.0 | 0.0 | 0.00 | 0.48 | 0.00 | 94 | 1008.3 |
| 20260509061304 | 14 | 190 | 0.0 | 0.0 | 0.00 | 0.48 | 0.00 | 94 | 1008.3 |
| 20260509060804 | 14 | 190 | 0.0 | 0.0 | 0.00 | 0.48 | 0.00 | 94 | 1008.8 |
| 20260509060304 | 14 | 235 | 0.0 | 0.0 | 0.00 | 0.48 | 0.00 | 94 | 1008.8 |
| 20260509055804 | 14 | 190 | 0.0 | 0.0 | 0.00 | 0.48 | 0.00 | 94 | 1008.8 |
| 20260509055306 | 14 | 167 | 0.0 | 0.0 | 0.00 | 0.48 | 0.00 | 94 | 1008.8 |
| 20260509054802 | 14 | 167 | 0.0 | 0.0 | 0.00 | 0.48 | 0.00 | 94 | 1008.6 |
| 20260509053302 | 14 | 143 | 0.0 | 0.0 | 0.00 | 0.48 | 0.00 | 94 | 1008.6 |
| 20260509052802 | 14 | 190 | 0.0 | 0.0 | 0.00 | 0.48 | 0.00 | 94 | 1008.4 |
| 20260509052306 | 14 | 118 | 0.0 | 0.0 | 0.00 | 0.48 | 0.00 | 94 | 1008.4 |
| 20260509051802 | 14 | 145 | 0.0 | 0.0 | 0.00 | 0.48 | 0.00 | 94 | 1008.4 |
| 20260509051302 | 14 | 106 | 0.0 | 0.0 | 0.00 | 0.48 | 0.00 | 94 | 1008.4 |
| 20260509050820 | 14 | 145 | 0.0 | 0.0 | 0.00 | 0.48 | 0.00 | 93 | 1008.9 |
| 20260509050302 | 15 | 182 | 0.0 | 0.0 | 0.00 | 0.48 | 0.00 | 93 | 1008.9 |
| 20260509045802 | 15 | 145 | 0.0 | 0.0 | 0.00 | 0.48 | 0.48 | 94 | 1008.9 |
| 20260509045306 | 15 | 125 | 0.0 | 8.0 | 0.00 | 0.48 | 0.48 | 94 | 1008.9 |
| 20260509044803 | 15 | 145 | 0.0 | 0.0 | 0.00 | 0.48 | 0.48 | 93 | 1008.9 |
| 20260509044302 | 15 | 145 | 0.0 | 3.2 | 0.00 | 0.48 | 0.48 | 93 | 1008.9 |
| 20260509043802 | 15 | 213 | 0.0 | 3.2 | 0.00 | 0.48 | 0.48 | 94 | 1008.9 |
| 20260509043302 | 15 | 135 | 0.0 | 0.0 | 0.08 | 0.48 | 0.48 | 94 | 1008.9 |
| 20260509042802 | 15 | 167 | 0.0 | 4.8 | 0.08 | 0.48 | 0.48 | 93 | 1009.5 |
| 20260509042306 | 15 | 77 | 0.0 | 0.0 | 0.15 | 0.48 | 0.48 | 93 | 1009.5 |
| 20260509041803 | 15 | 33 | 0.0 | 0.0 | 0.25 | 0.48 | 0.48 | 93 | 1009.5 |
| 20260509041302 | 15 | 282 | 0.0 | 0.0 | 0.25 | 0.48 | 0.48 | 92 | 1009.5 |
| 20260509040803 | 15 | 145 | 0.0 | 3.2 | 0.25 | 0.48 | 0.48 | 92 | 1009.7 |
| 20260509040302 | 15 | 167 | 0.0 | 3.2 | 0.25 | 0.48 | 0.48 | 92 | 1009.7 |
| 20260509035802 | 15 | 145 | 0.0 | 3.2 | 0.25 | 0.48 | 0.48 | 92 | 1009.7 |
| 20260509035305 | 15 | 350 | 0.0 | 0.0 | 0.33 | 0.48 | 0.48 | 90 | 1009.7 |
| 20260509034803 | 15 | 145 | 0.0 | 0.0 | 0.41 | 0.48 | 0.48 | 90 | 1009.9 |
| 20260509034303 | 15 | 123 | 0.0 | 0.0 | 0.48 | 0.48 | 0.48 | 90 | 1009.9 |
| 20260509033803 | 15 | 145 | 0.0 | 0.0 | 0.48 | 0.48 | 0.48 | 90 | 1009.9 |
| 20260509033302 | 15 | 167 | 0.0 | 4.8 | 0.41 | 0.41 | 0.41 | 90 | 1009.9 |
| 20260509032306 | 15 | 169 | 0.0 | 0.0 | 0.33 | 0.33 | 0.33 | 89 | 1010.3 |
| 20260509031803 | 15 | 123 | 0.0 | 0.0 | 0.25 | 0.25 | 0.25 | 89 | 1010.3 |
| 20260509030802 | 15 | 123 | 0.0 | 0.0 | 0.25 | 0.25 | 0.25 | 88 | 1010.4 |
| 20260509030302 | 15 | 182 | 0.0 | 0.0 | 0.25 | 0.25 | 0.25 | 88 | 1010.4 |
| 20260509025802 | 15 | 145 | 0.0 | 0.0 | 0.25 | 0.25 | 0.25 | 87 | 1010.4 |
| 20260509025306 | 15 | 145 | 0.0 | 4.8 | 0.15 | 0.15 | 0.15 | 85 | 1010.4 |
| 20260509024802 | 15 | 303 | 0.0 | 0.0 | 0.08 | 0.08 | 0.08 | 83 | 1009.9 |
| 20260509024302 | 16 | 303 | 0.0 | 0.0 | 0.00 | 0.00 | 0.00 | 83 | 1009.9 |
| 20260509023803 | 16 | 167 | 0.0 | 3.2 | 0.00 | 0.00 | 0.00 | 82 | 1009.9 |
| 20260509022802 | 16 | 167 | 0.0 | 0.0 | 0.00 | 0.00 | 0.00 | 80 | 1009.7 |
| 20260509022306 | 16 | 160 | 0.0 | 3.2 | 0.00 | 0.00 | 0.00 | 80 | 1009.7 |
| 20260509021802 | 16 | 280 | 0.0 | 0.0 | 0.00 | 0.00 | 0.00 | 79 | 1009.7 |
| 20260509021302 | 16 | 123 | 0.0 | 0.0 | 0.00 | 0.00 | 0.00 | 78 | 1009.7 |
| 20260509020802 | 16 | 145 | 0.0 | 0.0 | 0.00 | 0.00 | 0.00 | 78 | 1008.6 |
| 20260509020302 | 16 | 156 | 0.0 | 0.0 | 0.00 | 0.00 | 0.00 | 77 | 1008.6 |
| 20260509014802 | 16 | 280 | 0.0 | 4.8 | 0.00 | 0.00 | 0.00 | 76 | 1008.5 |
| 20260509014302 | 16 | 324 | 0.0 | 0.0 | 0.00 | 0.00 | 0.00 | 76 | 1008.5 |
| 20260509013803 | 16 | 303 | 0.0 | 0.0 | 0.00 | 0.00 | 0.00 | 76 | 1008.5 |
| 20260509013302 | 16 | 303 | 0.0 | 0.0 | 0.00 | 0.00 | 0.00 | 76 | 1008.5 |
| 20260509012803 | 16 | 303 | 0.0 | 0.0 | 0.00 | 0.00 | 0.00 | 75 | 1008.5 |
| 20260509012302 | 16 | 82 | 0.0 | 4.8 | 0.00 | 0.00 | 0.00 | 75 | 1008.5 |
| 20260509011803 | 16 | 347 | 0.0 | 4.8 | 0.00 | 0.00 | 0.00 | 73 | 1008.5 |
| 20260509011302 | 17 | 278 | 1.6 | 3.2 | 0.00 | 0.00 | 0.00 | 73 | 1008.5 |
| 20260509010802 | 17 | 303 | 1.6 | 4.8 | 0.00 | 0.00 | 0.00 | 70 | 1008.2 |
| 20260509010303 | 17 | 227 | 3.2 | 11.3 | 0.00 | 0.00 | 0.00 | 68 | 1008.2 |
| 20260509005306 | 18 | 323 | 1.6 | 8.0 | 0.00 | 0.00 | 0.00 | 66 | 1008.2 |
| 20260509004303 | 18 | 303 | 4.8 | 11.3 | 0.00 | 0.00 | 0.00 | 63 | 1008.1 |
| 20260509003803 | 19 | 33 | 8.0 | 12.9 | 0.00 | 0.00 | 0.00 | 60 | 1008.1 |
| 20260509003302 | 19 | 325 | 8.0 | 12.9 | 0.00 | 0.00 | 0.00 | 59 | 1008.1 |
| 20260509002802 | 20 | 10 | 8.0 | 12.9 | 0.00 | 0.00 | 0.00 | 56 | 1007.9 |
| 20260509002305 | 20 | 50 | 8.0 | 16.1 | 0.00 | 0.00 | 0.00 | 55 | 1007.9 |
| 20260509001803 | 20 | 303 | 3.2 | 14.5 | 0.00 | 0.00 | 0.00 | 54 | 1007.9 |
| 20260509001303 | 20 | 347 | 3.2 | 14.5 | 0.00 | 0.00 | 0.00 | 53 | 1007.9 |
| 20260509000803 | 21 | 347 | 3.2 | 8.0 | 0.00 | 0.00 | 0.00 | 53 | 1007.7 |
| 20260508235803 | 21 | 257 | 4.8 | 12.9 | 0.00 | 0.00 | 0.00 | 52 | 1007.7 |
| 20260508235306 | 21 | 332 | 3.2 | 12.9 | 0.00 | 0.00 | 0.00 | 52 | 1007.7 |
| 20260508234802 | 21 | 347 | 3.2 | 4.8 | 0.00 | 0.00 | 0.00 | 49 | 1008.0 |
| 20260508234302 | 21 | 283 | 4.8 | 9.7 | 0.00 | 0.00 | 0.00 | 49 | 1008.0 |
| 20260508233802 | 22 | 257 | 4.8 | 9.7 | 0.00 | 0.00 | 0.00 | 48 | 1008.0 |
| 20260508233303 | 22 | 351 | 4.8 | 9.7 | 0.00 | 0.00 | 0.00 | 47 | 1008.0 |
| 20260508232803 | 22 | 303 | 3.2 | 11.3 | 0.00 | 0.00 | 0.00 | 47 | 1007.8 |
| 20260508232306 | 22 | 319 | 3.2 | 11.3 | 0.00 | 0.00 | 0.00 | 46 | 1007.8 |
| 20260508231802 | 22 | 145 | 3.2 | 8.0 | 0.00 | 0.00 | 0.00 | 45 | 1007.8 |
| 20260508231303 | 22 | 359 | 3.2 | 12.9 | 0.00 | 0.00 | 0.00 | 44 | 1007.8 |
| 20260508230803 | 22 | 347 | 3.2 | 12.9 | 0.00 | 0.00 | 0.00 | 43 | 1007.5 |
| 20260508230302 | 23 | 247 | 4.8 | 12.9 | 0.00 | 0.00 | 0.00 | 42 | 1007.5 |
| 20260508225802 | 23 | 347 | 4.8 | 8.0 | 0.00 | 0.00 | 0.00 | 41 | 1007.5 |
| 20260508225306 | 24 | 18 | 3.2 | 9.7 | 0.00 | 0.00 | 0.00 | 40 | 1007.5 |
| 20260508224802 | 24 | 55 | 3.2 | 14.5 | 0.00 | 0.00 | 0.00 | 39 | 1007.7 |
| 20260508223802 | 24 | 280 | 3.2 | 8.0 | 0.00 | 0.00 | 0.00 | 39 | 1007.7 |
| 20260508222802 | 25 | 190 | 4.8 | 8.0 | 0.00 | 0.00 | 0.00 | 38 | 1007.3 |
| 20260508221303 | 27 | 145 | 8.0 | 20.9 | 0.00 | 0.00 | 0.00 | 36 | 1007.3 |
| 20260508220803 | 26 | 123 | 9.7 | 14.5 | 0.00 | 0.00 | 0.00 | 36 | 1007.5 |
| 20260508215803 | 25 | 33 | 8.0 | 12.9 | 0.00 | 0.00 | 0.00 | 37 | 1007.5 |
| 20260508215306 | 26 | 69 | 8.0 | 16.1 | 0.00 | 0.00 | 0.00 | 36 | 1007.5 |